TITAN 3C TRANSTAGE DEB, 26781

Orbit data source: Space-Track

TITAN 3C TRANSTAGE DEB, 26781 is space debris in HEO originally from a launch on Tue, 21 Dec 1965 UTC launched from the Air Force Eastern Test Range (AFETR). Debris objects in space refer to the collection of defunct objects orbiting the Earth. Examples of debris include non-operational satellites, rocket bodies, and fragments generated from explosions, collisions, or faulty payload assembly.

Loading next visibility...
Identifier
26781, 1965-108AZ
Orbit
HEO
Country
Flag of USUS
Related business
Manufacturer
Unknown
Mission
Spacecraft
Bus & Motor
Unknown
Mass
Unknown
Launch date (UTC)
1965-12-21 (60 years ago)
Launch vehicle
Unknown
Launch site
Air Force Eastern Test Range (AFETR)
Object type
Payload
Rocket body
Debris
Shape & HBR
Unknown shape, 0.2 m
Radar Cross Section
Medium (>0.1 m² and <1 m²)

Expand to show TLE details & history
Last TLE update: 1 day ago

TLE from 1 day ago
0 TITAN 3C TRANSTAGE DEB
1 26781U 65108AZ  26034.02156644  .00001441  00000-0  81255-2 0  9990
2 26781  27.4238  16.1634 6257262  47.9351 350.5892  3.43848025 78231
Epoch: 2026-02-03T00:31Z
TLE epoch observation values (Epoch: 2026-02-03T00:31:03.340Z)
Latitude
-0.00006°
Longitude
-124.81719°
Altitude
1,582.731 km
Speed
8.868 km/s
True Right ascension
01h 04m 37s
True Declination
0° 00' 00"
Sunlit
Object was in daylight at epoch
Visualization orbit readout
Latitude
Unknown
Longitude
Unknown
Altitude
Unknown
Speed
Unknown
Apparent Right ascension
Unknown
Apparent Declination
Unknown
Sunlit
N/A
Visualization observer readout
Local Sidereal Time
03:55:32
Azimuth
Unknown
Elevation
Unknown
Doppler factor
Unknown
Orbital elements
Apogee altitude
23,771.708 km
Perigee altitude
562.944 km
Semi-major axis
18,545.463 km
Eccentricity
0.62573
Inclination
27.4238°
RAAN
16.1634°
Arg. of periapsis
47.9351°
True anomaly
312.24349°
Mean anomaly
350.5892°
Eccentric anomaly
336.01656°
Mean motion
0.85938 °/min
Orbital period
418.91 mins
BSTAR
0.0081255
Loading maneuver chart data...
Computing Atmospheric mass density...

Documentation

Showing up to 5 results
|